EST,Max TemperatureF,Mean TemperatureF,Min TemperatureF,Max Dew PointF,MeanDew PointF,Min DewpointF,Max Humidity, Mean Humidity, Min Humidity, Max Sea Level PressureIn, Mean Sea Level PressureIn, Min Sea Level PressureIn, Max VisibilityMiles, Mean VisibilityMiles, Min VisibilityMiles, Max Wind SpeedMPH, Mean Wind SpeedMPH, Max Gust SpeedMPH,PrecipitationIn, CloudCover, Events, WindDirDegrees
2014-1-1,50,35,20,26,21,17,88,61,34,30.35,30.24,30.08,10,10,8,7,1,9,0.00,1,,311
2014-1-2,39,30,20,35,26,9,92,76,60,30.06,29.87,29.71,10,6,2,28,7,37,0.21,7,Rain-Snow,273
2014-1-3,26,20,13,10,5,2,80,60,40,30.41,30.33,30.07,10,10,9,23,6,29,T,3,Snow,313
2014-1-4,45,29,13,18,12,7,80,53,25,30.37,30.27,30.15,10,10,10,7,2,9,0.00,0,,344
2014-1-5,52,38,23,44,29,17,81,69,56,30.14,29.91,29.56,10,10,6,10,2,13,0.02,5,Rain,257
2014-1-6,51,27,2,44,15,-11,89,67,45,30.36,29.97,29.59,10,7,2,35,17,47,0.22,7,Rain-Snow,270
2014-1-7,13,6,-2,1,-6,-13,80,66,52,30.57,30.44,30.34,10,7,1,22,8,27,0.01,4,Snow,251
2014-1-8,36,21,5,16,8,0,83,58,32,30.61,30.52,30.47,10,10,10,6,1,8,0.00,2,,311
2014-1-9,51,36,21,27,20,16,81,55,28,30.52,30.42,30.32,10,10,10,7,1,8,0.00,4,,330
2014-1-10,57,47,36,47,39,27,92,78,64,30.32,30.17,29.93,10,8,2,7,2,9,0.06,7,Rain,59
2014-1-11,63,53,43,51,45,29,93,70,46,29.88,29.72,29.57,10,7,0,25,10,36,0.85,6,Fog-Rain-Thunderstorm,255
2014-1-12,52,41,29,32,28,24,78,58,38,30.12,30.04,29.87,10,10,10,16,5,21,0.00,1,,233
2014-1-13,45,35,25,37,29,22,88,71,53,30.10,29.99,29.83,10,10,10,7,1,8,0.01,6,Rain,47
2014-1-14,53,42,30,41,36,25,89,67,44,29.95,29.86,29.76,10,8,2,20,5,25,0.17,5,Rain,232
2014-1-15,40,34,27,32,27,15,89,68,47,30.03,29.97,29.90,10,7,2,15,5,20,0.04,7,Rain-Snow,249
2014-1-16,39,29,18,20,14,9,73,51,29,30.04,29.97,29.87,10,10,10,15,4,19,0.00,4,,237
2014-1-17,49,37,25,26,21,15,78,54,29,29.99,29.89,29.77,10,9,2,26,9,35,T,6,Snow,267
2014-1-18,33,26,19,17,11,6,63,51,39,30.10,30.00,29.90,10,9,2,17,8,25,T,7,Snow,257
2014-1-19,45,34,23,23,20,15,74,58,41,30.00,29.95,29.88,10,10,10,21,5,27,T,4,,247
2014-1-20,56,38,20,23,21,17,84,55,26,29.95,29.90,29.80,10,10,9,18,4,22,0.00,0,,251
2014-1-21,44,31,18,29,20,5,85,68,51,29.97,29.77,29.65,10,9,2,25,8,33,0.01,7,Rain-Snow,311
2014-1-22,24,17,9,4,-1,-5,64,47,30,30.12,30.06,29.99,10,10,10,21,8,25,0.00,5,,278
2014-1-23,28,18,7,10,1,-8,67,49,30,30.54,30.31,30.12,10,10,8,24,11,31,T,5,Snow,278
2014-1-24,23,13,2,-2,-7,-13,66,43,20,30.62,30.46,30.15,10,10,10,14,4,17,0.00,0,,265
2014-1-25,32,19,6,19,13,-1,81,57,33,30.12,29.83,29.72,10,7,0,28,10,35,0.09,6,Fog-Snow,239
2014-1-26,52,31,9,25,15,1,69,52,35,29.94,29.85,29.74,10,10,10,24,6,29,0.00,2,,266
2014-1-27,46,32,18,33,19,-3,85,59,33,30.22,29.95,29.78,10,10,10,21,8,25,T,7,,317
2014-1-28,19,16,13,11,7,-4,80,60,39,30.30,30.24,30.18,10,4,1,12,6,14,0.11,8,Snow,351
2014-1-29,20,9,-2,6,-1,-6,87,63,39,30.39,30.34,30.21,10,10,10,8,2,10,0.00,3,,337
2014-1-30,37,17,-3,13,2,-9,79,51,23,30.37,30.27,30.13,10,10,9,7,1,8,0.00,1,,43
2014-1-31,45,31,16,19,14,10,77,52,27,30.25,30.19,30.15,10,10,10,10,1,13,0.00,3,,265